Starlink 5739

operational
NORAD ID: 55571 Int'l Des: 2023-020 Owner: SPXS Country: US Constellation: starlink
LEOCIRCULAR

About Starlink 5739

Description loading...

Live Position

Loading 3D Globe...

Upcoming Passes

Altitude History

Altitude vs Time

uPlot chart will show altitude changes over time

Two-Line Element Set

1 55571U 23020C 25347.65457734 -.00002872 00000-0 -19771-3 0 9991
2 55571 43.0017 112.4511 0001357 278.9726 81.0963 15.02523759155975
Epoch: Dec 13, 2025 • Age: 15 hours

Current Status

Altitude 562.6 km
Velocity 7.59 km/s
Sub-Earth Point 40.77°N, 3.04°W
Launch Date Feb 12, 2023
Age 2.8 years
Type internet

Technical Details

Classification Payload
Mass 305.00 kg
Dry Mass 290.00 kg
Total Mass 305.00 kg
Length 0.20 m
Diameter 2.80 m
Span 9.00 m
Shape Box + pan
Manufacturer SPXS
Bus Type Starlink
Phase Status In Orbit
Owner/State SPXS/US

Large Constellations

Loading constellations...